Regional Weather Roundup
Issued by NWS State College, PA

Home | Current Version | Previous Version | Graphics & Text | Print | Product List | Glossary On
Versions: 1 2 3 4 5 6 7 8 9 10 11 12 13 14 15 16 17 18 19 20 21 22 23 24 25 26 27 28 29 30 31 32 33 34 35 36 37 38 39 40 41 42 43 44 45 46 47 48 49 50
000
ASUS41 KCTP 280003
RWRCTP

REGIONAL WEATHER ROUNDUP
NATIONAL WEATHER SERVICE STATE COLLEGE PA
700 PM EST MON FEB 27 2017

Note: "fair" indicates few or no clouds below 12,000 feet with no
significant weather and/or obstructions to visibility.

* = STATION THAT DOES NOT REPORT PRECIPITATION /E.G. RAIN...SNOW...ETC/
    THUNDER OR FOG.

PAZ002>004-007>009-013>016-020>023-029>032-280100-
WESTERN PENNSYLVANIA

CITY           SKY/WX    TMP DP  RH WIND       PRES   REMARKS
ERIE           CLOUDY    41  24  51 CALM      30.26S
MEADVILLE      CLOUDY    42  29  59 S5        30.25R
FRANKLIN*      CLOUDY    39  28  65 SW6       30.28R
NEW CASTLE     CLOUDY    41  36  82 S5        30.29R
BEAVER COUNTY  DRIZZLE   39  36  87 CALM      30.27R
BUTLER*        CLOUDY    41  36  81 S5        30.29R
PITTSBURGH INT CLOUDY    41  39  93 S8        30.27R
PITTSBURGH     CLOUDY    41  37  86 S7        30.28R
INDIANA*       CLOUDY    41  39  93 S5        30.31F
LATROBE        CLOUDY    41  41 100 S7        30.31S
WASHINGTON CO* CLOUDY    39  37  93 CALM      30.30S
$$

PAZ004>006-010>012-017>019-024>028-033>037-041-042-045-046-049>053-280100-
CENTRAL PENNSYLVANIA

CITY           SKY/WX    TMP DP  RH WIND       PRES   REMARKS
BRADFORD       CLOUDY    38  25  59 CALM      30.25S
DUBOIS         CLOUDY    40  33  76 S5        30.27R
CLEARFIELD       N/A    N/A N/A N/A MISG      30.29F
JOHNSTOWN      CLOUDY    39  38  96 CALM      30.28S
ALTOONA        CLOUDY    41  38  89 CALM      30.32R
STATE COLLEGE  DRIZZLE   41  36  81 CALM      30.32S
WILLIAMSPORT   CLOUDY    46  29  51 S7        30.34R
SELINSGROVE    LGT RAIN  45  35  68 S7        30.36S
FT INDIANTOWN  NOT AVBL
CAPITAL CITY   CLOUDY    48  32  53 CALM      30.37S
HARRISBURG     CLOUDY    46  34  62 CALM      30.37R
YORK           CLOUDY    49  29  46 S3        30.36S
$$

PAZ038>040-043-044-047-048-054-055-060>062-067>071-280100-
EASTERN PENNSYLVANIA

CITY           SKY/WX    TMP DP  RH WIND       PRES   REMARKS
SCRANTON       CLOUDY    45  29  53 SW7       30.34S
MOUNT POCONO   CLOUDY    38  31  76 W7        30.33R
ALLENTOWN      CLOUDY    45  33  63 SW5       30.39S
QUAKERTOWN*    CLOUDY    45  36  70 MISG      30.39S
READING        CLOUDY    45  37  73 CALM      30.38R
LANCASTER      CLOUDY    44  40  85 E5        30.38R
COATESVILLE    CLOUDY    46  28  49 S5        30.40R
POTTSTOWN      CLOUDY    45  34  65 CALM      30.40S
BLUE BELL      CLOUDY    46  32  57 CALM      30.39S
DOYLESTOWN     CLOUDY    47  33  58 CALM      30.38F
WILLOW GROVE   NOT AVBL
NORTH PHILA    CLOUDY    52  24  33 SW7       30.42S
PHILADELPHIA   CLOUDY    51  28  41 S6        30.41F
$$



USA.gov is the U.S. government's official web portal to all federal, state and local government web resources and services.